Weather History for New Haven, CT

Change the Weather History Date:

Monday, April 14, 2014

  Actual Average Record
Temperature  
Mean Temperature 58 °F -  
Max Temperature 66 °F 56 °F 87 °F (1977)
Min Temperature 52 °F 39 °F 33 °F (1971)
Degree Days  
Heating Degree Days 7    
Growing Degree Days 8 (Base 50)    
Moisture  
Dew Point 50 °F    
Average Humidity 79    
Maximum Humidity 94    
Minimum Humidity 60    
Precipitation  
Precipitation 0.00 in - - ()
Sea Level Pressure  
Sea Level Pressure 29.98 in    
Wind  
Wind Speed 6 mph (SSW)    
Max Wind Speed 17 mph    
Max Gust Speed 25 mph    
Visibility 10 miles    
Events      
Averages and records for this station are not official NWS values.
T = Trace of Precipitation, MM = Missing Value Source: NWS Daily Summary

Daily Weather History Graph

Daily Weather History Graph

Search for Another Location

Airport:

Trip Planner

Search our weather history database for the weather conditions in past years. The results will help you decide how hot, cold, wet, or windy it might be!

Date:

Astronomy

Apr. 14, 2014 Rise Set
Actual Time 6:13 AM EDT 7:30 PM EDT
Civil Twilight 5:45 AM EDT 7:59 PM EDT
Nautical Twilight 5:10 AM EDT 8:33 PM EDT
Astronomical Twilight 4:34 AM EDT 9:09 PM EDT
Moon 7:06 PM EDT (4/14) 5:44 AM EDT (4/14)
Length of Visible Light 14h 14m
Length of Day
13h 16m
Full, 100% of the Moon is Illuminated
Apr 14
Full
Apr 15
Full
Apr 22
Last Quarter
Apr 29
New
May 6
First Quarter

Hourly Weather History & Observations

Time (EDT) Temp. Dew Point Humidity Pressure Visibility Wind Dir Wind Speed Gust Speed Precip Events Conditions
12:53 AM 55.9 °F 50.0 °F 80% 30.06 in 10.0 mi SW 3.5 mph - N/A   Clear
1:53 AM 55.0 °F 50.0 °F 83% 30.05 in 10.0 mi South 3.5 mph - N/A   Clear
2:53 AM 54.0 °F 50.0 °F 86% 30.04 in 10.0 mi South 3.5 mph - N/A   Clear
3:53 AM 55.9 °F 50.0 °F 80% 30.03 in 10.0 mi SSW 6.9 mph - N/A   Clear
4:53 AM 53.6 °F 48.2 °F 82% 30.02 in 10.0 mi SSW 3.5 mph - N/A   Clear
5:53 AM 53.1 °F 48.9 °F 86% 30.02 in 10.0 mi South 4.6 mph - N/A   Mostly Cloudy
6:53 AM 52.0 °F 48.9 °F 89% 30.03 in 10.0 mi Calm Calm - N/A   Scattered Clouds
7:53 AM 55.4 °F 51.8 °F 88% 30.04 in 10.0 mi South 4.6 mph - N/A   Scattered Clouds
8:53 AM 57.9 °F 52.0 °F 81% 30.03 in 10.0 mi SSW 5.8 mph - N/A   Partly Cloudy
9:53 AM 57.9 °F 52.0 °F 81% 30.04 in 10.0 mi SSW 5.8 mph - N/A   Mostly Cloudy
10:53 AM 61.0 °F 53.1 °F 75% 30.03 in 10.0 mi Variable 6.9 mph - N/A   Mostly Cloudy
11:53 AM 61.0 °F 53.1 °F 75% 30.02 in 10.0 mi SW 6.9 mph - N/A   Clear
12:53 PM 64.9 °F 53.1 °F 65% 29.99 in 10.0 mi SSW 13.8 mph 20.7 mph N/A   Scattered Clouds
1:53 PM 62.6 °F 51.8 °F 68% 29.98 in 10.0 mi SSW 11.5 mph 17.3 mph N/A   Mostly Cloudy
2:53 PM 62.1 °F 50.0 °F 65% 29.96 in 10.0 mi SSW 13.8 mph 21.9 mph N/A   Overcast
3:53 PM 63.0 °F 48.9 °F 60% 29.95 in 10.0 mi South 17.3 mph 25.3 mph N/A   Clear
4:53 PM 61.0 °F 50.0 °F 67% 29.94 in 10.0 mi South 11.5 mph - N/A   Mostly Cloudy
5:53 PM 62.1 °F 50.0 °F 65% 29.92 in 10.0 mi SSW 17.3 mph 23.0 mph N/A   Mostly Cloudy
6:53 PM 57.0 °F 48.0 °F 72% 29.92 in 10.0 mi South 11.5 mph - N/A   Mostly Cloudy
7:53 PM 54.0 °F 46.9 °F 77% 29.92 in 10.0 mi South 10.4 mph - N/A   Overcast
8:53 PM 54.0 °F 48.0 °F 80% 29.93 in 10.0 mi South 10.4 mph - N/A   Overcast
9:53 PM 54.0 °F 50.0 °F 86% 29.92 in 10.0 mi South 6.9 mph - N/A   Clear
10:27 PM 53.6 °F 50.0 °F 88% 29.92 in 10.0 mi South 5.8 mph - N/A   Mostly Cloudy
10:53 PM 54.0 °F 51.1 °F 90% 29.91 in 10.0 mi SSW 5.8 mph - N/A   Overcast
11:24 PM 53.6 °F 51.8 °F 94% 29.91 in 10.0 mi WNW 3.5 mph - N/A   Overcast
11:53 PM 55.9 °F 53.1 °F 90% 29.91 in 10.0 mi SSW 8.1 mph - N/A   Overcast